This demonstration page uses our WeatherBlox Daily Observations layout. Learn more.

Hourly Observations for December 3, 2017

Temp ( °F °C ) Dew Point ( °F °C ) Humidity (%) Winds ( mph kmh ) Pressure ( in mb ) Visibility ( mi km ) Precip ( " mm )
12:54 am 00:54 Clear 27 -2.8 20 -6.7 75 75 Calm 30.12 1020 10 16.0934 0 0
1:54 am 01:54 Clear 31 -0.6 22 -5.6 69 69 Calm 30.11 1020 10 16.0934 0 0
2:54 am 02:54 Clear 29 -1.7 20 -6.7 69 69 Calm 30.11 1020 9 14.48406 0 0
3:54 am 03:54 Clear 30 -1.1 22 -5.6 72 72 Calm 30.09 1019 10 16.0934 0 0
4:54 am 04:54 Clear 29 -1.7 23 -5 78 78 Calm 30.07 1018 10 16.0934 0 0
5:54 am 05:54 Clear 32 0 25 -3.9 75 75 Calm 30.06 1018 10 16.0934 0 0
6:54 am 06:54 Clear 31 -0.6 25 -3.9 79 79 SE 3 6 30.06 1018 9 14.48406 0 0
7:54 am 07:54 Sunny 26 -3.3 21 -6.1 81 81 SE 3 6 30.07 1018 8 12.87472 0 0
8:54 am 08:54 Sunny 36 2.2 28 -2.2 73 73 Calm 30.05 1018 8 12.87472 0 0
9:54 am 09:54 Sunny 46 7.8 39 3.9 77 77 SSW 6 9 30.03 1017 8 12.87472 0 0
10:54 am 10:54 Sunny 53 11.7 42 5.6 66 66 SE 5 7 30 1016 8 12.87472 0 0
11:54 am 11:54 Sunny 57 13.9 44 6.7 62 62 S 15 24 29.93 1014 9 14.48406 0 0
12:54 pm 12:54 Sunny 59 15 45 7.2 60 60 SSE 10 17 29.88 1012 9 14.48406 0 0
1:54 pm 13:54 Sunny 63 17.2 47 8.3 56 56 S 14 22 29.82 1010 10 16.0934 0 0
2:54 pm 14:54 Sunny 63 17.2 47 8.3 56 56 S 17 28 29.77 1008 10 16.0934 0 0
3:54 pm 15:54 Sunny 60 15.6 47 8.3 62 62 SSE 8 13 29.74 1007 10 16.0934 0 0
4:54 pm 16:54 Sunny 58 14.4 47 8.3 67 67 ESE 9 15 29.72 1006 9 14.48406 0 0
5:54 pm 17:54 Clear 57 13.9 48 8.9 72 72 SSE 9 15 29.7 1006 9 14.48406 0 0
6:54 pm 18:54 Clear 58 14.4 50 10 75 75 SSE 13 20 29.67 1005 9 14.48406 0 0
7:54 pm 19:54 Clear 58 14.4 49 9.4 72 72 SSE 14 22 29.65 1004 10 16.0934 0 0
8:54 pm 20:54 Clear 57 13.9 48 8.9 72 72 SSE 12 19 29.62 1003 10 16.0934 0 0
9:54 pm 21:54 Clear 55 12.8 47 8.3 74 74 SSE 9 15 29.58 1002 10 16.0934 0 0
10:54 pm 22:54 Clear 54 12.2 48 8.9 80 80 SSE 10 17 29.54 1000 10 16.0934 0 0
11:54 pm 23:54 Clear 57 13.9 52 11.1 83 83 S 10 17 29.5 999 10 16.0934 0 0

Powered by AerisWeather